Regional Weather Roundup
Issued by NWS Sioux Falls, SD

Home | Current Version | Previous Version | Graphics & Text | Print | Product List | Glossary Off
Versions: 1 2 3 4 5 6 7 8 9 10 11 12 13 14 15 16 17 18 19 20 21 22 23 24 25 26 27 28 29 30 31 32 33 34 35 36 37 38 39 40 41 42 43 44 45 46 47 48 49 50

369
ASUS43 KFSD 250110
RWRFSD

WEATHER ROUNDUP FOR SE SOUTH DAKOTA/SW MINNESOTA/NW IOWA
NATIONAL WEATHER SERVICE SIOUX FALLS SD
800 PM CDT TUE MAY 24 2016

NOTE: "FAIR" INDICATES FEW OR NO CLOUDS BELOW 12,000 FEET WITH NO
SIGNIFICANT WEATHER AND OR OBSTRUCTIONS TO VISIBILITY.


SDZ038>040-050-052>070-250200-
SOUTHEAST SOUTH DAKOTA

CITY           SKY/WX    TMP DP  RH WIND       PRES   REMARKS
BROOKINGS      CLEAR     83  41  22 CALM      29.84F
CHAMBERLAIN    CLEAR     79  58  47 E6        29.78F
HURON          CLEAR     78  53  41 E7        29.80F
MADISON        FAIR      81  46  30 S5        29.85S
MITCHELL       CLEAR     78  58  49 E6        29.81F
SIOUX FALLS    PTCLDY    75  53  46 E7        29.83F
WINNER         FAIR      77  55  46 E12       29.77F
YANKTON        CLEAR     79  61  53 SE14      29.81R
$$

MNZ071-072-080-081-089-090-097-098-250200-
SOUTHWEST MINNESOTA

CITY           SKY/WX    TMP DP  RH WIND       PRES   REMARKS
FAIRMONT       CLEAR     82  46  28 SE6       29.87S
JACKSON        CLEAR     81  46  30 CALM      29.88S
LUVERNE        CLEAR     79  54  41 SE10      29.86R
MARSHALL       CLEAR     84  45  25 CALM      29.84F
MONTEVIDEO     CLEAR     79  57  47 S14       29.86S
PIPESTONE      CLEAR     82  36  18 CALM      29.86S
REDWOOD FALLS  CLEAR     76  51  41 E8        29.85S
TRACY          CLEAR     82  43  24 NE3       29.85F
WINDOM         CLEAR     81  55  41 CALM      29.86F
WORTHINGTON    CLEAR     77  64  64 SE8       29.88S
$$

IAZ001>003-012>014-020>022-031-032-NEZ013-014-SDZ071-250200-
NORTHWEST IOWA

CITY           SKY/WX    TMP DP  RH WIND       PRES   REMARKS
CHEROKEE       CLEAR     78  62  57 SE7       29.86S
DENISON        CLEAR     77  61  57 SE6       29.86R
ESTHERVILLE    CLEAR     78  54  43 SE6       29.87S
LE MARS        CLEAR     79  64  61 SE6       29.85F
ORANGE CITY    CLEAR     79  64  61 S3        29.86S
SHELDON        CLEAR     79  59  50 SE6       29.85S
SIOUX CITY     CLEAR     78  63  59 SE9       29.84S
SPENCER        CLEAR     77  56  48 SE7       29.86F
STORM LAKE     CLEAR     77  63  61 SE13      29.88S
$$

ABBREVIATIONS USED IN REMARKS
   TC - TEMPERATURE IN CELSIUS
  WCI - WIND CHILL INDEX
   HX - HEAT INDEX
  VSB - VISIBILITY





USA.gov is the U.S. government's official web portal to all federal, state and local government web resources and services.